Theta_e
288 289 289 290 289 289 289 289 289 289 291 292 291 292 295 295 293 292 296 295 296 300 301 301 302 304 304 302 303 305 306 307 307 309 313 321 323 325 326 328 330 332 333 335 336 336 337 338 338 338 340 341 342 343 344 345 345 346 347 346 346 346 347 347 347 348 348 348 349 349 349 349 349 349 349 350 350 351 351 351 352 352 353 353 352 353 354
287 288 288 290 289 289 289 290 291 292 292 293 295 296 297 297 295 296 296 297 298 301 303 302 303 305 303 302 306 307 306 305 307 307 311 318 323 324 326 328 330 332 334 335 336 337 337 337 338 338 340 341 342 342 343 344 345 347 347 347 346 346 346 347 348 349 349 349 349 349 349 349 349 349 349 350 350 350 350 351 352 353 353 353 353 352 352
285 288 290 290 290 289 287 290 291 294 297 300 303 302 301 301 297 297 297 296 297 302 303 305 305 306 310 313 313 312 309 308 311 311 313 318 323 325 327 329 330 332 334 335 336 337 337 338 338 339 340 341 342 343 344 345 346 347 348 347 346 346 346 348 349 349 349 349 349 348 349 349 349 349 349 350 350 350 350 350 351 352 353 352 353 353 353
283 288 289 288 289 289 288 289 293 296 297 299 305 299 304 298 295 295 295 294 296 300 309 309 307 322 323 322 324 325 321 312 316 317 318 320 323 325 327 329 331 332 333 334 336 337 337 338 339 340 341 342 342 343 344 345 346 348 348 347 347 347 347 348 349 349 349 350 349 349 349 349 350 350 350 350 349 350 349 349 350 351 350 351 352 353 354
281 287 288 287 287 291 291 292 295 296 299 300 303 308 308 306 305 300 296 296 305 310 314 308 313 324 325 327 327 328 329 324 314 317 320 322 324 326 328 330 331 332 333 335 336 337 338 339 339 340 342 342 342 344 345 346 348 348 348 348 348 348 349 349 349 349 350 350 350 350 350 350 350 350 350 350 349 349 349 350 350 350 350 350 350 351 352
280 284 286 288 288 283 286 299 300 300 297 299 298 303 307 307 307 305 307 308 311 313 319 320 321 325 325 326 328 330 329 329 322 315 318 321 324 327 329 330 331 332 334 336 337 338 339 340 341 341 343 343 344 346 347 348 348 349 349 349 349 349 349 349 350 350 350 350 350 350 351 351 351 350 350 350 350 350 350 351 350 349 350 350 350 350 350
279 283 286 287 280 285 299 305 302 302 302 303 301 302 310 308 308 308 307 309 312 317 320 326 325 326 328 331 331 333 334 333 331 318 318 320 324 325 328 329 331 333 334 336 337 338 339 340 341 342 342 344 345 347 348 348 349 349 349 349 349 350 349 350 351 351 351 350 350 351 351 351 351 351 350 351 351 351 351 350 350 349 349 349 349 350 350
285 281 281 276 283 294 298 306 302 304 304 302 302 302 309 309 308 308 306 308 313 320 320 324 328 328 329 331 333 334 337 337 335 335 327 321 324 325 327 329 331 332 334 335 336 337 341 342 341 341 341 343 344 346 348 348 349 349 350 349 349 350 350 350 351 351 351 351 351 351 351 351 351 350 351 351 351 351 352 351 352 352 352 351 350 350 350
277 280 280 282 288 291 297 296 298 299 296 298 298 294 302 310 307 308 307 308 311 317 324 325 323 324 327 328 330 337 337 338 339 339 339 338 324 326 328 330 330 333 335 336 337 341 340 340 341 341 342 343 344 345 346 347 348 349 350 349 350 350 351 351 352 352 352 352 351 351 351 351 351 351 351 351 352 353 351 351 351 351 351 351 351 351 350
285 275 278 278 279 282 291 297 300 303 304 304 304 301 300 309 307 309 309 308 310 314 324 326 326 324 325 322 327 334 338 339 340 341 342 343 341 332 331 332 332 333 335 338 342 339 339 340 341 342 343 344 344 344 345 346 347 348 349 349 350 351 351 352 353 353 353 353 352 352 352 351 351 351 352 352 352 353 351 351 350 351 351 351 352 352 350
283 279 276 276 275 282 294 296 300 303 304 304 307 300 300 307 306 309 310 309 309 312 321 326 325 323 319 322 327 334 337 339 341 340 342 343 344 343 337 335 335 336 338 340 341 341 340 339 342 344 345 345 345 344 345 346 347 347 348 349 351 351 352 354 354 354 354 354 353 352 352 352 352 352 352 352 353 354 353 352 352 352 352 351 351 352 351
283 281 278 276 282 281 294 298 300 302 305 306 303 294 297 303 307 309 310 310 310 311 321 326 326 324 320 322 328 336 338 339 341 341 342 342 343 344 346 345 342 343 346 345 341 340 340 341 345 347 346 346 346 345 345 346 346 346 348 350 352 353 354 355 355 355 355 355 354 353 353 353 354 353 354 354 354 353 353 353 353 353 352 352 351 351 351
284 284 280 283 285 298 298 299 301 305 308 306 297 290 298 306 308 310 310 311 312 312 318 322 320 323 327 329 331 334 336 337 338 341 343 344 345 345 346 348 352 347 347 345 344 343 344 346 347 348 348 346 347 348 347 346 346 347 349 351 353 354 355 355 356 356 356 356 355 355 355 354 354 355 355 354 354 353 353 353 352 352 352 352 351 351 351
282 282 280 281 287 299 300 300 305 308 306 294 293 304 310 308 308 309 310 311 313 314 317 319 320 323 325 327 329 330 331 333 336 339 340 342 343 345 348 351 350 348 348 348 349 350 350 350 349 349 349 348 349 349 348 347 348 350 352 352 353 354 355 356 356 357 357 358 357 356 357 357 355 355 355 356 355 354 354 353 352 351 352 351 351 350 351
286 285 281 282 280 295 301 302 304 304 296 295 305 307 308 309 308 307 307 310 312 313 314 318 318 319 321 323 325 327 328 330 333 336 338 339 339 340 341 342 346 347 346 346 347 348 350 352 352 352 352 351 350 350 348 350 352 352 354 354 354 354 355 355 356 357 358 358 358 358 358 358 356 355 356 356 355 355 354 353 352 351 351 351 350 350 350
283 283 282 284 295 296 302 304 296 301 303 306 308 308 305 308 309 307 306 308 311 312 311 315 317 318 318 321 323 325 326 327 329 332 335 337 339 340 342 342 343 344 343 344 344 346 348 350 352 353 353 352 353 352 352 354 353 353 353 353 355 355 354 355 356 357 358 359 359 360 360 359 358 357 356 356 355 355 354 353 352 351 351 351 350 349 348
288 287 291 298 301 303 307 306 303 304 305 306 306 305 305 303 305 311 305 306 310 311 312 313 315 316 318 318 319 321 323 326 327 329 331 334 336 338 339 340 343 342 341 341 342 342 344 346 348 351 353 353 353 352 351 355 356 355 353 351 351 353 354 355 355 356 358 359 359 360 360 359 358 357 357 356 355 355 354 353 352 351 351 351 350 349 348
294 295 296 302 302 304 304 304 305 303 303 304 305 303 302 303 304 309 307 308 309 309 313 312 313 315 317 318 318 318 320 323 326 328 330 331 334 336 339 340 341 340 340 341 340 340 341 343 344 348 348 351 350 349 351 356 355 355 354 351 350 350 351 353 354 356 356 357 358 359 360 360 359 358 357 356 355 355 354 353 352 351 351 350 349 349 349
288 286 297 295 295 298 305 302 304 305 304 304 304 303 303 304 304 305 307 308 310 309 313 311 310 310 314 317 318 318 317 319 323 326 327 328 330 332 334 338 340 338 338 338 339 340 339 339 341 343 344 345 347 349 350 350 353 353 352 351 352 350 350 351 352 354 355 356 356 358 359 359 360 360 359 357 356 354 354 353 352 352 351 350 349 349 349
288 290 294 295 298 298 303 302 301 301 302 303 304 304 305 305 306 306 306 308 310 311 311 311 309 306 308 311 314 317 315 316 320 324 326 326 328 331 333 336 339 337 336 336 337 337 337 337 339 340 341 342 344 345 348 350 351 354 355 352 351 350 349 349 350 352 354 359 358 356 357 358 358 358 358 358 356 355 354 354 353 352 352 351 350 350 350
291 294 295 295 296 299 300 301 302 304 304 303 302 304 304 305 304 305 305 309 309 309 308 313 310 306 306 307 310 313 318 315 317 321 325 325 327 330 331 333 337 336 336 336 336 336 336 336 338 338 338 340 342 344 346 348 349 353 355 356 352 349 348 349 350 352 353 356 357 356 345 329 316 315 322 343 356 357 353 356 358 356 354 354 353 354 353
286 288 291 294 288 289 294 297 299 300 303 303 302 303 303 303 303 304 304 307 310 308 309 311 311 306 306 307 309 311 315 318 317 319 325 325 325 328 331 333 333 335 337 337 336 336 335 335 337 338 338 338 340 343 345 347 348 351 352 351 349 347 347 349 350 353 353 355 356 348 337 328 323 317 308 300 304 330 339 319 312 315 329 354 357 357 356
286 292 294 296 295 294 295 297 299 301 305 304 301 301 302 303 304 305 305 306 308 307 309 310 313 309 306 306 309 311 314 317 319 320 324 324 325 327 330 331 332 333 335 337 336 337 336 336 337 337 338 338 339 341 342 344 346 347 348 349 349 347 348 349 350 353 353 353 347 341 335 334 335 329 327 319 300 297 304 307 303 303 310 313 317 333 352
294 296 296 297 296 294 297 299 300 301 302 302 301 302 303 303 304 305 306 308 307 308 309 309 313 311 309 308 309 310 314 317 319 322 325 324 325 328 330 330 331 332 333 334 334 334 334 336 336 336 337 338 338 340 341 342 343 344 346 349 348 346 347 348 351 352 351 346 341 338 337 339 338 336 334 332 328 305 297 300 299 295 294 303 314 318 325
293 298 299 299 298 299 300 301 301 302 303 303 301 301 302 303 304 306 306 308 310 310 308 309 312 312 311 310 310 311 313 317 321 326 326 325 326 327 328 330 330 331 331 332 332 333 334 335 337 336 336 337 337 338 340 341 342 342 342 343 344 345 347 351 352 350 345 342 340 339 337 337 338 339 339 338 332 326 318 301 299 297 298 297 298 304 305
299 299 300 301 300 300 302 302 301 302 302 303 302 303 305 307 307 308 307 309 310 311 311 311 307 309 313 311 309 311 316 320 324 325 322 322 324 326 326 326 328 330 330 329 329 333 336 337 336 336 336 337 337 338 339 340 340 340 340 342 345 347 347 348 348 346 343 341 340 340 341 341 340 341 341 339 335 334 333 333 329 315 305 299 297 298 297
300 301 300 298 298 299 302 300 299 303 302 302 301 301 302 302 306 309 311 312 311 310 311 309 308 310 313 313 312 313 317 321 322 322 322 323 323 322 322 323 326 327 327 327 327 332 335 336 335 335 335 335 336 338 339 339 340 339 340 342 345 352 352 348 344 344 343 341 340 340 340 340 340 340 336 335 335 336 337 336 330 325 322 317 303 298 304
300 301 301 296 296 298 300 302 303 304 303 303 302 301 301 303 303 304 307 310 310 309 309 309 309 311 311 311 311 313 319 320 321 322 322 320 320 320 319 320 322 325 324 325 325 327 329 329 332 333 332 333 336 337 338 338 338 338 339 340 340 340 341 342 341 341 340 340 340 340 340 338 338 336 335 335 334 332 328 328 326 322 320 316 312 306 299
300 301 302 302 302 303 304 304 304 304 303 303 303 301 301 301 302 305 308 309 309 309 308 309 311 313 313 312 314 317 318 320 321 320 318 318 319 318 318 319 321 323 322 322 322 323 324 326 327 328 329 330 334 336 336 336 335 336 337 338 338 338 338 337 337 336 336 336 336 335 332 332 333 334 334 333 332 331 330 328 326 324 321 321 322 320 316
300 302 303 303 303 303 303 302 303 304 304 303 300 299 300 299 299 301 306 308 309 308 309 310 310 312 315 315 318 317 318 319 318 317 316 316 316 317 317 318 320 321 320 320 319 321 322 323 324 325 327 328 333 335 334 333 333 333 333 334 336 336 335 335 334 334 334 333 333 330 333 334 334 334 332 331 331 330 329 328 327 327 327 328 326 325 321
301 302 303 303 303 302 301 302 303 303 304 302 301 300 299 299 299 300 302 306 307 307 308 309 311 314 316 317 317 318 319 318 315 315 314 315 316 316 317 316 316 316 315 317 318 320 322 323 324 325 327 329 334 334 334 333 333 333 332 332 331 325 324 326 329 335 335 335 335 334 333 333 333 332 331 331 331 330 329 330 329 327 327 326 325 324 322
299 300 301 301 302 302 301 300 300 301 302 302 299 299 298 298 297 298 300 303 305 306 307 310 314 315 315 315 315 316 315 313 313 313 313 314 315 316 316 315 315 316 315 316 318 320 322 322 323 324 327 329 331 332 332 332 332 332 332 333 331 331 328 327 332 333 335 336 334 334 333 331 331 332 331 330 328 326 323 321 319 319 318 317 316 316 319
297 297 297 299 300 301 301 303 301 300 301 301 300 300 300 299 299 301 301 304 307 310 313 314 314 314 313 312 313 312 312 312 312 312 312 312 314 315 316 316 314 314 314 315 317 319 321 321 322 323 325 326 327 328 328 329 329 329 329 330 330 331 330 325 327 332 334 333 333 333 332 331 331 329 327 326 325 324 320 319 318 317 314 313 311 311 312
297 297 298 299 300 299 299 301 303 301 300 301 301 301 300 301 301 301 302 305 308 313 314 314 312 311 311 310 310 310 311 311 311 310 310 311 312 314 314 315 314 313 314 315 316 317 319 321 321 321 323 324 324 324 324 325 326 326 326 326 326 325 325 325 326 329 329 329 330 330 330 329 327 326 325 324 322 320 319 318 317 315 313 311 311 310 306
300 300 301 301 302 303 303 302 302 303 304 303 304 302 301 302 302 303 307 311 311 310 310 309 309 309 309 309 309 309 309 308 308 309 309 310 311 312 313 313 313 313 313 313 314 315 317 320 322 321 321 321 322 321 321 322 323 323 323 324 324 324 324 325 324 324 324 324 324 323 322 322 321 322 321 319 318 317 316 315 314 313 312 311 311 311 309
300 299 300 300 301 302 302 303 303 303 303 303 304 305 306 307 308 308 308 308 309 308 308 308 308 308 308 307 307 307 307 308 308 309 309 310 311 312 312 312 311 311 311 311 313 315 316 318 322 322 320 320 320 321 321 320 320 321 321 321 321 321 321 321 321 321 321 320 319 318 317 318 317 315 314 313 313 312 312 311 311 310 310 310 310 310 309
300 300 299 300 300 301 301 302 303 303 303 303 304 304 304 305 306 307 308 308 308 308 308 308 307 306 306 306 307 307 307 307 308 308 309 310 311 311 310 310 310 310 310 308 311 315 315 316 318 319 317 318 318 319 321 321 318 318 318 318 318 318 318 317 317 317 317 318 317 316 316 314 312 312 312 311 310 310 310 309 309 308 308 308 308 307 306
299 299 299 299 300 300 300 301 303 303 303 303 304 305 305 304 305 305 305 306 307 307 308 307 307 307 307 307 307 306 306 307 307 307 308 308 309 308 308 308 308 309 308 308 312 314 314 315 316 315 314 315 316 316 318 319 320 316 316 315 315 315 315 314 314 314 313 313 314 313 312 311 310 309 309 308 308 308 307 307 307 306 305 305 305 305 305
298 299 299 299 300 300 300 301 302 302 303 302 302 303 305 307 306 305 305 305 306 307 306 306 306 306 305 305 304 305 306 307 308 307 307 307 308 307 306 307 308 310 310 312 313 313 314 313 312 311 312 312 313 314 316 317 316 312 312 313 313 313 313 312 312 312 311 311 310 309 308 308 308 307 307 307 307 306 307 306 305 304 303 303 303 303 303
298 298 298 299 298 299 299 300 300 301 302 303 302 302 304 304 305 304 304 304 305 307 305 305 305 304 303 304 304 304 305 306 307 307 307 308 307 306 306 307 309 310 312 313 313 313 314 314 312 311 310 310 310 311 313 313 312 310 308 308 307 307 307 308 308 307 307 307 307 308 306 306 305 304 304 304 303 303 302 303 302 302 302 302 301 301 302
298 299 299 299 299 299 299 299 299 300 301 302 302 303 304 304 304 304 304 304 305 306 305 305 304 303 303 303 303 304 305 306 306 306 307 307 305 305 304 303 308 310 311 311 312 312 312 312 311 309 310 311 311 313 310 311 308 307 306 306 305 304 303 303 302 302 302 303 304 303 303 303 303 302 302 301 301 299 300 300 300 300 299 299 300 300 300
301 300 300 300 300 300 300 300 300 300 300 301 303 303 303 304 304 303 304 305 304 305 305 305 307 304 304 305 304 304 304 304 305 306 306 305 304 304 303 304 309 310 311 311 311 310 309 309 310 310 309 309 311 312 312 311 307 306 305 304 303 303 302 301 301 300 300 300 299 299 300 299 299 298 299 299 299 299 299 298 298 298 298 298 298 298 298
302 301 301 300 300 300 300 300 300 300 300 301 302 302 302 302 303 304 304 304 304 303 304 304 306 306 306 305 304 303 303 304 304 304 305 306 307 307 305 306 308 310 312 311 309 308 309 308 308 308 310 309 309 311 309 306 305 305 305 305 306 305 304 303 302 302 301 299 299 298 298 297 297 297 297 296 296 296 296 296 296 296 297 296 297 297 297
303 303 302 301 301 301 301 301 300 300 299 300 302 302 302 302 302 303 303 303 304 304 303 302 303 303 304 304 303 303 303 304 304 304 304 304 305 307 309 308 308 310 311 310 309 308 308 309 308 309 311 309 308 308 306 304 303 303 303 303 304 303 303 302 302 301 301 300 299 298 299 300 298 297 296 296 296 295 296 295 295 294 295 295 295 295 295
302 302 302 302 302 302 301 301 300 300 301 302 301 302 302 301 301 302 302 302 303 303 303 304 303 303 303 303 303 303 303 304 305 305 303 302 301 303 308 310 309 309 310 310 308 308 307 307 308 310 309 308 308 307 304 303 302 302 302 302 302 302 302 301 301 301 301 300 300 300 300 298 298 298 297 298 298 296 295 295 294 294 294 294 294 294 294
302 302 303 303 302 302 302 302 303 302 301 301 300 302 302 302 301 302 302 302 301 302 303 303 304 304 304 304 304 304 304 304 304 305 305 305 304 304 308 309 308 309 309 309 308 307 308 310 308 308 307 308 308 305 304 304 304 302 301 301 302 302 301 300 300 300 300 300 299 299 298 298 298 298 298 297 297 297 297 297 296 295 295 294 294 295 295
300 300 300 301 303 303 303 302 303 302 301 300 299 299 301 302 302 301 301 302 301 301 302 303 304 305 305 304 304 303 302 302 302 304 305 305 308 308 309 310 310 309 308 306 306 306 307 307 308 307 307 307 307 304 303 303 302 302 302 302 302 302 302 301 301 301 301 300 301 301 301 300 299 298 299 298 297 297 297 296 295 295 295 296 295 296 295
299 298 298 299 298 299 301 302 301 299 299 300 300 301 301 301 301 302 302 301 301 301 302 302 303 305 305 305 305 305 305 303 300 301 304 305 305 306 307 306 306 307 307 307 306 307 307 306 306 306 306 307 305 303 303 303 303 302 302 302 301 301 301 301 300 300 300 301 300 299 298 298 298 298 298 297 297 297 297 296 296 296 295 295 295 294 294
297 298 298 299 298 298 298 299 300 301 299 301 301 301 302 301 300 301 301 301 300 300 300 301 301 302 304 306 306 306 306 307 303 301 304 304 304 304 304 306 306 305 304 303 303 303 305 304 304 304 305 304 302 302 303 303 304 304 304 303 303 303 302 302 301 301 300 300 300 299 298 298 298 298 298 298 298 298 298 297 297 297 297 297 296 296 296
297 297 296 296 296 295 295 296 297 297 299 301 300 300 301 301 299 299 301 300 301 302 299 299 300 300 301 303 304 305 306 306 305 305 305 304 303 302 304 304 305 305 304 302 302 302 305 305 305 304 303 301 301 302 301 301 301 302 302 303 303 302 303 303 302 303 302 302 300 300 299 298 297 298 297 297 297 297 297 297 296 296 296 296 295 294 294
296 296 295 297 297 298 296 297 299 300 299 301 301 302 301 301 300 301 300 300 299 300 298 299 299 300 301 302 303 304 304 304 305 304 303 303 304 304 304 303 303 303 302 301 301 300 300 300 300 302 301 301 300 300 300 300 300 300 301 301 301 302 302 302 302 301 301 301 300 299 298 297 296 295 296 296 296 295 295 296 295 294 294 293 293 293 293
296 296 296 295 296 296 297 299 300 299 299 300 299 300 299 299 299 299 299 300 299 297 298 297 297 299 302 301 303 303 305 305 304 303 303 303 301 301 302 302 300 301 299 299 298 299 299 301 302 302 301 299 298 299 301 301 299 299 300 300 300 299 300 300 301 300 300 300 299 298 297 296 295 295 295 295 295 295 295 294 294 294 294 293 293 293 293
Wind_Speed
8 7 6 8 9 10 11 14 15 17 17 10 9 8 10 8 6 7 1 5 7 19 8 6 10 11 9 9 12 12 12 9 8 9 9 13 16 17 16 16 16 18 18 17 18 17 17 17 17 17 15 15 13 13 13 14 15 16 15 15 16 16 15 16 16 15 14 13 13 13 13 12 12 12 12 12 12 11 11 11 10 10 10 10 11 11 11
4 7 7 8 9 8 9 11 14 15 14 15 13 14 12 12 11 6 14 12 15 17 10 5 5 3 4 5 3 3 6 12 12 11 13 15 17 18 18 18 18 18 19 18 18 18 17 18 18 17 15 15 16 17 16 16 16 15 15 16 16 15 16 16 15 14 13 12 12 12 12 12 12 13 12 12 12 12 12 12 11 10 10 11 10 11 12
4 6 6 6 4 6 11 13 12 11 11 13 12 12 12 8 7 11 17 16 16 5 7 6 5 4 2 3 4 6 7 7 9 12 15 16 17 17 17 16 18 18 18 17 16 16 17 18 19 18 17 17 17 17 15 16 16 15 16 15 16 16 16 15 13 12 12 12 12 13 13 12 12 12 12 11 11 12 12 11 11 11 10 11 11 11 12
5 1 0 4 7 10 10 12 9 8 7 9 9 4 5 2 5 5 8 9 13 5 13 11 5 6 8 7 10 10 10 8 7 11 13 14 14 15 16 17 16 17 16 15 16 18 18 18 18 17 15 15 15 16 16 17 16 15 15 15 16 15 15 13 13 14 13 13 13 13 12 13 13 12 11 12 12 12 12 12 11 10 11 12 12 11 10
5 2 2 8 11 8 2 4 1 7 2 5 8 2 5 6 4 4 9 10 4 11 11 8 6 5 7 9 10 10 12 12 8 7 8 11 12 14 16 17 17 17 17 18 19 20 18 18 18 18 17 16 17 17 17 15 13 15 16 16 15 14 14 14 15 14 13 14 14 13 14 13 13 12 13 13 13 13 13 12 11 12 13 12 12 12 12
4 4 7 6 1 4 5 6 5 4 2 5 10 7 10 9 5 4 5 8 12 12 11 4 2 6 5 4 5 3 6 10 12 6 5 5 7 10 14 17 18 18 15 15 17 19 20 20 21 18 17 18 15 12 12 12 15 14 15 14 14 15 14 14 14 14 14 14 14 14 13 13 13 13 13 14 13 12 12 11 12 12 13 14 13 13 13
4 4 5 1 4 6 2 1 6 9 4 5 13 10 6 12 13 14 12 12 13 13 9 3 1 1 1 4 9 12 11 10 9 8 6 5 7 9 9 10 12 13 16 16 15 13 13 13 11 12 11 8 10 11 13 14 14 14 14 14 14 14 14 14 14 14 14 14 14 14 14 13 13 13 14 13 14 13 11 12 12 14 14 13 13 13 13
2 4 0 2 5 2 6 2 4 7 4 7 12 5 4 14 15 14 13 15 14 12 10 8 5 2 4 1 10 13 13 13 10 10 4 6 7 10 10 12 11 12 13 14 16 16 12 12 13 14 13 12 14 13 13 14 13 14 14 14 14 13 14 14 15 14 14 14 14 13 13 13 13 14 14 14 14 12 12 12 11 10 10 11 13 14 13
3 4 3 7 6 6 3 4 6 11 6 9 7 5 5 12 15 16 16 17 16 15 11 9 8 7 5 6 12 15 18 15 14 10 8 5 6 8 6 7 7 7 7 8 8 8 10 12 13 13 12 12 12 12 12 12 13 13 13 14 14 14 14 14 14 14 14 15 14 14 14 14 14 14 14 14 13 11 12 12 11 11 12 11 12 12 12
2 1 3 5 1 5 2 2 7 6 5 7 8 4 6 11 18 17 16 16 16 16 13 10 7 4 6 12 10 13 16 16 15 12 10 7 3 5 9 7 9 8 8 9 9 11 11 11 11 10 11 12 12 13 13 12 13 13 14 15 14 14 14 14 14 14 14 15 15 14 13 15 15 15 14 13 13 12 12 12 12 12 11 11 12 12 13
4 2 2 3 3 2 3 7 8 9 6 8 3 3 2 9 16 18 17 18 17 15 12 10 5 4 6 7 7 10 14 14 14 12 10 8 7 4 5 12 12 11 11 12 12 12 12 12 10 11 12 13 12 13 12 13 14 14 15 15 14 14 14 14 14 14 14 14 14 14 14 15 15 15 14 14 13 12 11 11 12 11 11 11 11 10 10
3 2 2 4 4 5 5 9 10 12 9 5 3 3 2 11 16 16 16 17 17 16 13 8 10 8 8 4 5 9 11 11 12 11 11 10 10 9 8 6 9 11 11 12 12 13 14 14 13 14 14 14 14 13 13 13 14 15 15 15 15 14 13 12 13 13 12 14 14 14 15 15 13 14 13 11 10 10 11 11 10 10 10 9 12 10 10
5 6 4 3 5 2 7 9 12 13 8 2 2 1 3 9 13 14 14 15 15 15 12 11 9 8 5 4 8 12 14 14 14 13 12 11 10 11 10 8 7 9 8 10 11 11 11 12 12 14 14 14 14 12 12 12 14 15 14 11 10 11 11 12 12 13 12 13 14 14 14 14 14 13 11 12 11 11 11 10 11 10 11 10 10 11 10
6 4 4 7 5 0 5 11 10 9 2 4 3 3 4 8 11 14 14 13 14 14 11 8 6 5 12 15 14 15 15 13 12 12 13 13 13 13 12 12 10 10 11 11 10 9 6 9 10 11 12 12 11 10 11 13 12 8 8 10 10 10 11 12 12 12 13 12 12 12 12 11 10 11 11 11 11 12 10 10 12 12 11 10 10 10 10
3 2 3 2 2 1 9 14 6 12 7 4 6 5 6 7 9 12 14 12 14 13 11 10 13 15 14 12 12 12 14 15 13 13 13 13 13 13 13 13 11 10 11 11 11 9 7 8 8 9 11 11 9 9 10 8 6 7 8 9 10 10 10 11 11 11 11 12 11 10 10 12 12 12 11 11 11 10 11 11 11 12 12 10 10 10 10
2 4 3 2 2 6 10 7 4 5 7 3 8 7 8 9 8 10 12 13 13 14 13 13 13 12 13 15 16 15 15 14 15 14 15 14 13 13 12 12 10 10 12 10 11 10 9 9 8 9 12 11 10 10 8 5 6 7 7 8 9 10 10 10 11 10 11 12 12 11 12 11 12 12 11 11 11 10 10 10 10 11 9 9 9 10 10
1 1 2 3 0 5 6 9 10 10 8 8 9 9 8 10 11 10 10 13 16 14 14 12 12 11 12 10 11 12 12 12 13 14 13 14 13 11 12 11 10 10 11 11 11 12 10 10 9 9 10 13 11 10 5 4 5 7 8 8 9 10 10 11 11 11 11 11 12 12 12 12 12 11 11 11 10 9 9 10 10 10 9 9 10 10 10
9 8 9 3 3 4 6 9 8 8 7 8 8 9 9 9 10 11 10 13 15 15 14 13 11 11 10 12 12 12 13 13 13 15 16 15 14 14 12 12 11 9 9 10 11 12 11 10 9 8 7 9 12 7 4 3 3 5 7 8 8 8 8 9 10 10 11 12 12 12 12 11 12 12 12 12 11 10 10 10 10 10 10 9 9 9 9
6 1 3 6 9 6 4 7 7 8 6 7 7 7 8 9 12 13 14 12 14 14 14 13 12 12 12 10 11 11 11 14 15 14 13 13 12 12 12 10 9 10 9 10 10 10 10 8 7 7 8 7 5 5 7 4 2 3 6 7 7 7 8 8 7 8 10 9 9 9 10 9 10 10 10 10 10 10 10 10 9 9 9 9 8 7 9
3 4 8 10 8 8 3 5 7 6 7 7 7 6 6 9 9 10 14 13 13 14 13 15 14 16 16 14 13 10 8 9 11 12 12 12 11 11 10 10 9 8 8 8 8 8 8 6 6 6 6 6 4 3 6 5 4 4 5 5 6 7 8 7 7 8 9 9 9 8 9 9 9 8 9 8 9 10 10 10 10 9 8 9 9 9 8
8 10 4 9 11 4 9 7 7 5 4 5 6 6 8 8 9 12 14 13 12 14 14 13 15 16 18 16 15 14 9 7 9 10 11 11 9 9 11 9 7 7 5 6 6 7 6 4 4 5 5 5 4 6 6 5 4 6 5 4 4 4 5 5 6 7 8 8 8 7 5 5 6 4 1 4 7 7 5 6 10 10 10 9 9 9 8
5 3 4 10 8 6 6 8 11 10 1 1 7 7 5 8 9 8 10 13 13 14 13 12 12 14 14 16 14 15 13 10 7 8 10 11 11 11 9 7 7 7 6 6 6 6 5 5 5 5 6 5 4 4 4 4 4 6 4 4 4 3 3 4 4 5 6 6 6 6 7 7 6 5 8 6 5 1 3 4 5 2 4 9 9 8 8
7 8 12 11 10 13 13 12 10 9 2 2 7 10 9 9 8 7 8 9 9 11 13 11 9 11 13 15 13 14 14 14 12 9 7 9 11 11 10 10 11 8 6 6 6 6 5 5 5 5 5 5 5 4 3 3 4 5 5 5 4 3 3 3 4 4 4 4 4 5 5 7 8 7 5 8 13 10 6 4 5 5 1 2 3 9 10
14 13 12 11 10 11 11 10 9 11 10 8 11 12 12 11 9 7 6 8 8 7 9 11 7 8 11 14 12 12 14 15 13 15 13 7 5 10 10 9 10 10 9 8 7 6 5 5 6 6 6 6 6 5 3 1 3 5 5 5 4 2 2 4 4 5 5 6 6 7 7 7 8 7 7 6 6 12 12 9 10 10 8 5 2 7 10
11 11 12 13 12 14 12 13 12 11 12 12 12 12 12 12 10 8 7 7 6 4 8 9 9 7 8 12 12 11 11 14 13 14 14 14 13 10 10 12 11 11 9 7 6 5 5 5 5 6 6 6 6 4 2 0 4 6 6 5 4 3 2 4 5 6 7 7 7 8 8 8 8 7 7 7 9 6 8 11 15 15 14 12 9 6 10
12 12 12 13 12 12 11 10 12 13 11 10 12 12 13 14 13 9 9 9 7 5 6 6 8 9 7 9 12 11 11 13 16 13 11 13 14 13 12 12 13 11 9 8 7 7 7 6 5 5 5 5 5 4 1 2 5 7 6 6 4 3 3 4 5 5 6 6 7 8 7 7 6 7 7 5 6 7 7 6 7 10 14 16 12 11 13
11 11 11 12 11 11 9 10 8 4 5 7 10 13 14 12 14 11 8 7 7 6 5 6 7 7 6 6 11 10 9 12 12 10 11 11 13 11 11 10 11 10 10 8 8 8 8 6 5 5 6 5 5 4 3 3 5 7 7 6 5 5 6 4 3 4 4 4 5 6 7 7 7 7 5 5 6 7 6 6 5 4 3 6 12 14 9
10 9 7 8 10 11 8 6 7 7 9 9 8 10 12 9 9 10 9 7 7 7 5 6 7 6 4 5 7 10 10 10 10 10 11 10 9 9 10 12 10 8 8 7 7 8 7 6 5 5 5 6 6 6 4 3 5 6 6 6 5 5 4 5 4 3 3 3 4 6 6 6 5 5 5 6 5 4 6 6 8 8 6 6 6 9 16
12 10 8 9 13 13 12 11 11 10 10 8 7 7 8 8 7 7 7 7 7 6 6 7 7 7 5 5 5 7 8 8 8 9 9 8 8 9 10 11 9 7 7 7 8 8 6 6 6 6 6 6 6 5 4 3 5 5 6 5 4 4 5 5 5 5 5 4 4 5 5 6 5 6 5 5 6 7 6 7 7 7 8 7 8 9 10
13 11 8 8 9 10 11 10 8 8 9 9 8 7 7 8 9 7 5 6 6 7 8 6 6 6 6 6 4 4 5 7 5 5 6 7 8 9 10 10 7 5 8 9 9 9 8 6 5 6 7 8 6 4 2 4 5 6 7 6 5 4 4 4 5 5 6 6 6 8 7 6 6 6 6 6 7 7 8 8 8 9 8 7 6 8 10
14 13 13 10 9 9 9 10 7 6 5 6 7 7 5 5 7 6 6 7 7 7 7 7 6 6 5 4 2 3 3 3 3 3 4 5 6 7 8 9 8 6 7 7 8 8 8 7 6 6 7 6 4 2 2 4 5 5 6 6 6 9 9 8 6 5 5 6 8 8 7 6 6 7 7 7 8 8 7 8 8 7 7 7 7 8 8
15 16 17 16 13 10 9 8 7 6 3 3 4 7 7 6 7 9 7 5 6 8 8 7 6 6 3 1 2 2 1 2 2 3 3 3 5 6 7 7 7 6 6 7 7 7 7 7 7 7 7 6 4 3 3 4 4 6 5 5 6 5 6 8 6 7 6 6 6 8 9 9 7 7 8 7 7 7 8 9 9 8 6 8 8 6 5
14 14 14 15 14 14 12 10 8 7 3 1 4 4 2 2 4 6 6 5 5 4 5 6 5 3 1 1 0 0 0 1 1 1 3 4 5 5 5 5 5 6 7 7 8 8 8 8 7 7 6 6 5 6 6 5 5 5 5 5 6 6 6 6 7 7 8 6 6 6 6 8 9 9 10 9 9 8 8 8 8 8 9 8 8 7 6
14 13 14 15 14 13 14 14 10 7 5 3 0 2 3 3 4 5 5 5 6 5 6 5 1 1 1 2 1 1 1 2 1 2 4 4 4 5 5 5 5 5 6 7 8 8 8 7 7 6 6 5 6 6 6 6 5 6 6 6 6 6 6 6 7 7 8 8 7 8 8 8 7 8 10 11 11 11 9 9 8 7 8 9 8 8 13
13 14 15 15 17 16 15 12 12 11 11 11 9 5 2 4 4 5 5 3 2 1 2 2 1 1 2 2 3 2 2 1 1 2 2 3 3 3 2 3 3 3 6 9 8 7 8 8 7 5 5 6 7 7 6 7 6 6 7 8 8 7 6 6 7 6 7 7 7 8 8 8 7 8 8 8 9 10 10 11 10 8 7 9 8 10 11
12 12 12 14 15 16 16 14 14 14 12 11 11 11 10 10 10 10 9 7 4 4 3 2 1 2 3 3 3 4 4 3 1 1 2 2 2 1 0 2 4 5 6 8 9 8 7 7 11 11 6 7 7 8 8 7 8 8 8 8 8 7 7 8 7 7 7 7 9 10 12 14 12 10 9 9 8 9 11 11 11 9 7 6 7 9 9
9 9 10 11 12 15 17 16 15 14 13 13 13 11 11 10 9 7 7 7 7 5 3 1 2 4 5 4 5 5 5 3 3 2 3 3 2 1 2 4 5 5 6 7 7 6 5 7 10 14 8 7 8 9 11 14 8 7 8 9 8 8 9 9 8 8 9 8 9 11 11 10 10 11 10 8 8 9 10 10 10 10 10 9 8 8 9
8 7 9 11 13 15 17 16 16 16 17 16 15 14 14 10 9 8 8 8 8 7 5 4 4 5 5 5 5 6 6 5 4 4 2 2 1 7 7 6 5 3 5 4 3 3 4 7 11 9 7 8 9 10 14 18 16 10 9 9 9 9 10 10 10 9 8 8 9 9 10 10 9 9 9 9 9 11 10 10 10 9 8 9 10 9 9
12 12 13 13 14 16 17 17 17 17 18 18 16 15 14 13 11 10 10 10 9 8 7 6 4 5 6 6 5 5 5 5 4 4 4 4 4 10 8 5 5 5 4 3 2 4 6 8 7 7 9 8 9 11 14 18 17 10 9 8 9 9 9 10 10 10 10 8 8 9 9 9 9 10 9 9 10 11 12 12 10 9 10 9 10 10 10
11 12 13 13 14 14 15 15 16 17 16 15 15 15 13 13 11 10 11 11 10 10 9 8 7 6 8 8 7 6 5 4 4 3 3 2 5 9 9 8 7 5 8 11 7 7 11 15 10 7 8 10 11 10 12 15 14 10 9 9 9 9 9 9 9 9 9 9 11 12 10 10 9 9 9 9 8 9 9 11 11 9 8 9 10 9 10
10 11 11 12 12 13 13 13 13 14 14 14 14 13 13 12 11 12 13 11 9 9 9 9 8 10 10 9 8 7 7 7 7 7 4 2 6 6 8 10 6 6 7 8 8 10 13 11 10 9 9 9 10 12 13 15 11 9 9 10 10 10 10 10 10 10 9 9 9 10 9 9 11 12 10 11 11 10 9 11 11 10 9 8 8 9 9
9 9 11 11 11 12 12 12 11 12 12 12 13 13 14 14 13 13 12 10 10 10 10 10 15 13 10 9 9 9 9 8 8 9 9 8 7 4 9 10 5 8 13 13 12 12 9 10 11 11 10 10 11 17 15 11 11 11 11 12 13 13 12 11 11 11 11 10 10 10 10 9 10 11 11 11 10 10 10 9 10 11 10 10 9 9 9
7 8 8 9 9 10 10 10 11 11 11 11 11 11 11 12 12 12 12 12 12 11 11 10 13 14 13 11 10 9 8 8 8 7 8 9 10 9 9 8 6 9 16 12 10 9 10 9 10 11 16 14 13 20 18 11 10 11 11 11 11 12 12 11 10 10 11 12 12 12 12 12 12 12 12 11 11 10 9 10 10 9 9 9 9 10 10
6 5 5 5 6 6 6 7 7 8 9 9 8 9 11 10 10 11 10 11 11 12 12 13 14 13 14 13 13 11 10 9 8 7 6 7 9 11 9 8 7 12 19 11 10 10 10 10 11 17 23 22 21 18 12 11 10 11 12 12 12 12 12 11 10 9 10 11 12 12 12 12 12 12 12 12 11 11 11 11 10 9 9 9 9 9 9
6 4 4 4 5 5 5 5 5 6 5 5 8 9 9 9 9 10 10 10 11 11 12 11 11 12 12 12 11 11 11 11 10 9 8 8 9 9 8 11 11 10 13 16 10 10 10 11 16 21 19 21 20 17 11 11 12 11 11 11 11 11 11 12 11 10 10 11 11 11 11 12 12 12 12 12 12 11 10 10 9 8 9 9 9 10 9
3 2 2 4 4 4 4 4 3 3 4 5 6 8 8 8 8 8 8 9 9 9 9 10 10 10 11 11 11 10 9 9 10 10 9 7 7 6 8 11 9 12 17 16 10 10 12 21 22 20 20 20 19 12 11 11 10 11 12 12 12 11 11 11 12 12 11 11 11 11 11 11 11 11 11 11 11 11 10 10 9 9 9 10 9 9 8
3 4 4 3 2 2 2 3 3 3 4 5 6 6 7 7 7 7 7 8 8 9 9 9 9 10 10 9 8 7 8 8 10 10 10 10 10 10 12 16 17 18 14 11 11 11 11 13 16 20 19 19 16 11 11 11 11 11 11 11 11 11 10 10 11 10 10 10 11 12 13 12 11 11 12 11 11 10 8 8 9 9 9 10 9 10 9
4 4 4 3 3 3 3 3 3 3 4 5 5 5 6 6 7 7 7 7 8 8 9 9 9 9 9 10 9 9 7 6 7 9 9 9 9 9 8 7 10 16 16 16 17 17 22 21 20 20 19 16 11 10 10 10 10 10 10 10 10 10 10 10 10 10 9 10 10 10 9 10 11 11 10 11 10 10 9 9 9 9 8 8 8 8 8
5 4 5 4 5 5 4 3 3 3 3 2 4 5 5 6 7 7 7 7 8 8 8 9 10 9 8 9 9 7 8 8 7 7 8 8 9 9 9 11 16 15 10 9 9 10 16 19 19 19 19 15 10 9 9 9 10 10 9 9 9 9 9 9 9 9 9 10 10 10 10 10 9 9 9 9 9 9 9 9 9 8 8 8 8 8 7
5 5 6 5 5 5 5 4 4 3 2 1 3 5 6 7 7 7 7 6 6 8 8 8 8 8 8 7 7 7 7 7 8 8 8 8 9 9 9 9 10 15 14 9 9 9 13 18 17 16 12 9 9 9 8 9 9 9 8 9 9 8 8 9 9 10 9 9 10 10 10 10 10 11 10 9 9 8 8 8 8 10 13 9 7 6 6
6 5 5 4 4 4 3 2 2 2 3 2 2 4 4 5 6 6 6 7 7 7 6 6 6 6 5 6 6 6 6 6 7 8 7 7 7 9 10 9 10 10 10 10 8 8 8 8 8 9 10 9 8 8 7 7 7 9 9 7 8 7 7 7 7 7 8 8 8 9 9 9 9 9 8 8 8 8 8 7 7 7 6 6 6 6 6
4 4 5 4 4 4 5 5 5 5 5 5 4 4 4 4 4 5 6 8 6 6 6 6 6 6 6 6 6 6 5 6 5 5 7 7 7 6 8 11 8 9 9 8 9 9 8 9 11 13 12 9 7 8 11 12 8 8 8 9 8 9 8 8 7 7 7 8 8 8 9 9 9 9 8 8 8 8 7 7 6 6 6 6 6 6 6
Wind_Direction
235 254 269 279 286 266 269 272 277 282 283 283 260 248 238 264 238 249 306 238 247 264 246 208 221 225 231 209 218 219 223 232 237 236 216 204 207 205 198 193 186 186 187 186 186 183 183 179 178 177 178 180 178 179 179 178 177 181 178 179 182 185 186 190 194 194 194 196 197 197 196 197 199 200 202 202 201 201 201 205 208 208 207 209 211 216 219
244 256 253 269 271 277 269 266 266 269 280 280 270 262 252 232 248 286 285 267 250 256 271 278 279 294 237 242 223 247 237 235 232 225 221 209 202 199 195 191 189 189 189 185 184 181 178 178 179 175 176 178 178 178 179 179 181 179 172 181 183 185 189 194 194 192 192 192 194 193 194 196 199 201 202 202 201 203 206 208 208 207 209 212 214 215 218
250 245 260 264 259 286 291 277 273 279 277 279 269 248 254 247 255 251 256 264 271 274 44 350 297 317 305 327 318 272 255 258 235 218 216 210 198 193 193 190 187 188 187 185 179 178 179 180 180 178 178 180 179 179 177 178 179 177 177 180 183 185 193 193 189 188 188 193 191 194 197 198 199 201 202 200 202 205 207 206 207 207 207 212 214 216 218
292 245 216 288 295 288 260 272 281 293 324 348 345 10 342 240 235 255 258 267 261 331 338 332 317 7 31 8 342 331 315 274 228 212 208 203 193 186 188 188 188 187 183 176 176 180 183 183 181 179 178 176 174 179 178 179 179 173 176 178 184 188 189 184 186 188 191 190 192 196 194 200 199 200 200 201 205 206 205 206 207 206 211 214 216 217 219
262 254 347 316 315 307 248 194 286 297 295 338 328 265 354 10 278 252 234 242 6 311 311 308 332 20 38 27 4 343 328 312 273 232 218 205 196 186 184 186 187 185 181 180 180 183 181 181 181 183 177 174 181 180 177 177 165 171 178 180 182 185 185 187 189 189 188 191 194 195 197 198 198 197 200 204 206 206 207 207 205 208 212 212 215 217 220
263 303 322 314 352 199 221 152 90 1 312 354 352 330 13 351 11 275 265 275 297 312 324 327 359 52 49 38 352 333 331 318 302 263 220 220 216 200 190 187 185 184 182 182 184 182 182 184 185 179 175 181 179 169 161 157 170 174 175 179 181 185 186 188 188 188 190 193 195 198 197 197 197 199 201 205 206 206 207 205 208 212 213 214 215 216 219
278 302 344 145 193 212 22 186 33 2 344 29 338 293 10 4 356 351 342 332 327 322 309 292 317 70 100 43 27 14 358 343 325 274 202 197 186 194 197 193 189 182 180 180 180 179 182 177 167 162 171 148 127 146 159 167 173 173 177 178 181 184 188 189 188 190 192 194 197 197 198 197 198 202 203 206 207 206 205 206 207 212 213 213 216 217 220
306 16 343 175 207 298 306 187 44 21 48 21 349 335 22 19 7 352 341 330 319 316 307 292 273 300 329 302 35 14 2 357 343 335 288 191 174 184 186 186 184 175 177 177 177 181 169 158 166 170 167 156 155 163 166 168 171 174 175 179 185 186 189 189 191 191 190 194 197 198 198 197 199 203 205 206 207 205 207 211 213 214 216 216 218 219 219
174 209 161 237 317 321 26 2 11 360 348 341 353 320 307 18 2 357 343 330 329 326 317 298 281 277 279 17 16 4 2 355 349 341 331 300 187 161 164 165 173 168 161 154 146 132 147 162 164 168 157 157 157 155 162 167 168 171 175 183 188 188 190 190 191 191 191 194 197 198 196 197 200 204 206 207 209 205 208 210 210 211 215 213 217 218 216
163 75 305 334 32 206 175 102 313 318 305 308 285 255 276 10 356 348 346 336 329 323 327 324 303 292 37 24 360 354 351 353 350 346 348 1 16 137 136 128 130 132 130 125 133 140 146 158 159 152 155 154 154 159 164 164 167 175 180 190 189 187 191 191 192 191 193 194 197 198 195 198 202 206 207 208 208 203 204 208 210 212 212 217 216 216 217
40 37 152 228 199 235 116 316 320 319 303 305 301 211 240 14 347 342 343 339 332 330 330 336 360 62 66 29 354 341 348 348 354 350 354 8 28 46 126 140 138 138 141 141 139 138 142 147 155 152 153 152 154 163 166 169 174 178 187 191 188 190 194 192 191 191 193 195 198 197 196 201 203 205 206 206 207 202 206 210 215 214 215 217 218 218 216
209 212 221 266 220 250 301 327 333 316 306 350 139 176 50 352 337 339 338 342 337 330 330 351 42 43 80 28 360 347 349 354 5 8 10 15 31 46 55 75 121 128 129 127 137 148 158 162 155 155 152 157 164 168 174 171 176 186 191 193 192 192 190 190 191 192 193 196 199 197 200 203 204 207 207 208 204 199 206 209 214 214 213 215 218 219 215
223 220 254 281 300 312 338 328 319 309 301 162 106 107 351 327 325 335 338 336 340 330 348 8 43 16 12 31 28 12 8 11 10 11 20 28 39 48 49 60 79 99 106 125 140 150 156 153 155 156 159 163 170 170 168 174 187 192 192 188 184 188 189 190 192 194 195 197 199 201 202 203 203 206 204 206 205 201 204 206 212 216 214 215 218 223 218
211 210 219 229 242 339 315 330 322 309 30 58 68 60 9 329 331 335 340 336 340 341 350 360 8 4 21 26 23 19 13 7 5 9 20 28 39 45 52 54 64 86 88 91 93 87 109 144 149 154 155 159 159 158 166 185 191 179 170 179 184 187 188 192 194 195 196 197 199 202 203 201 200 206 207 206 205 203 204 205 209 214 214 215 218 223 224
191 217 239 301 311 286 359 328 334 12 80 352 340 343 345 350 339 346 341 348 337 337 334 357 14 20 21 19 19 19 16 10 5 7 13 23 27 35 41 45 43 66 81 77 76 81 82 105 125 131 130 131 136 146 162 170 146 145 158 167 176 183 190 195 196 196 195 193 196 199 201 198 199 205 204 203 205 201 203 204 207 212 213 211 214 221 225
216 186 196 210 341 310 309 329 82 54 67 20 343 347 347 344 353 351 343 339 339 337 348 354 7 12 11 18 16 16 13 7 3 8 16 19 22 30 38 45 41 45 69 68 71 66 70 79 96 112 118 119 123 123 133 157 149 148 153 156 164 177 190 195 196 197 193 194 197 199 199 196 200 204 202 202 203 201 201 202 204 210 212 210 211 217 222
341 278 310 336 158 311 13 52 62 66 43 32 6 4 3 354 339 336 341 336 337 339 352 353 2 10 8 6 13 21 9 7 10 12 15 20 20 21 29 34 33 42 56 62 63 58 51 61 70 84 103 111 107 106 143 152 144 145 156 161 167 182 188 193 195 197 196 197 197 198 198 194 197 201 204 198 202 203 199 202 204 207 210 205 209 213 218
299 268 246 242 79 44 52 62 69 66 38 32 16 2 347 350 336 331 333 333 339 337 351 356 356 9 4 3 4 9 11 10 4 9 11 10 13 19 24 26 27 37 46 54 60 63 53 46 58 60 70 97 105 121 137 127 144 146 147 146 168 186 190 192 195 192 196 202 200 199 197 196 198 199 199 197 200 200 197 202 203 204 207 205 209 211 215
348 254 164 15 340 335 115 90 87 75 56 37 8 3 354 338 341 335 326 335 339 338 350 356 350 352 2 4 10 9 11 10 7 2 3 3 8 13 17 15 24 30 39 48 50 56 57 39 53 58 69 59 75 119 114 112 99 134 130 149 169 178 188 192 192 192 197 201 199 200 199 198 200 201 202 201 200 199 197 201 201 204 206 205 209 205 215
262 271 337 338 335 305 98 109 67 40 22 21 10 359 343 336 328 327 321 332 342 342 357 353 352 350 356 1 3 5 11 6 1 356 353 352 354 2 8 12 21 31 38 45 52 53 50 31 42 61 65 73 81 81 91 93 91 108 117 147 159 177 186 181 185 190 197 196 191 197 198 197 199 200 202 202 200 199 197 196 196 201 199 204 205 204 208
287 288 296 6 339 65 112 109 93 68 29 356 346 346 336 337 334 327 326 328 339 345 347 349 352 351 347 352 353 350 355 13 7 354 344 344 347 354 6 358 11 32 33 45 52 60 49 24 43 55 56 57 52 60 61 70 83 83 90 117 146 163 170 176 187 188 186 187 187 182 139 78 43 29 322 234 205 196 206 202 200 197 202 205 204 209 208
288 306 16 19 355 306 288 308 325 330 306 15 326 310 314 315 311 314 321 321 335 339 335 343 351 350 339 341 350 345 339 345 1 349 346 343 344 351 356 354 4 13 26 40 43 48 30 9 28 39 42 33 32 38 57 70 85 84 84 79 98 128 150 179 185 178 174 178 169 145 130 131 114 77 59 74 24 347 145 7 9 314 193 201 201 195 204
291 307 309 303 285 277 273 283 294 293 225 332 303 294 296 287 284 299 310 308 325 330 324 325 344 344 337 330 343 340 337 333 334 337 351 360 341 345 348 354 358 356 5 21 32 34 21 14 32 34 35 21 20 20 26 56 86 97 101 99 104 122 139 174 188 171 157 145 130 121 124 139 139 133 117 58 48 47 41 40 44 46 52 256 236 194 187
279 280 287 286 276 271 277 270 272 277 280 279 274 272 272 265 268 265 263 278 284 300 304 307 325 340 331 325 334 334 329 328 338 333 338 12 357 333 345 351 348 350 356 1 6 1 1 20 33 33 26 11 355 349 340 344 94 94 94 104 106 139 151 154 153 154 146 142 137 141 150 155 155 150 134 112 67 39 43 57 59 58 42 28 199 195 184
285 291 287 279 273 272 270 274 269 263 258 259 258 256 260 267 260 245 242 244 232 252 281 295 312 324 329 323 326 330 328 323 328 333 340 343 354 6 352 350 352 347 338 338 340 346 9 19 36 39 26 358 341 327 306 162 105 85 80 84 92 104 130 147 147 149 146 149 151 151 155 157 162 162 150 147 131 106 46 59 70 61 44 36 45 94 140
282 280 277 279 276 271 269 266 261 255 251 241 251 257 256 253 253 246 231 229 217 217 258 288 304 312 326 326 321 326 331 329 329 335 344 351 350 351 358 353 341 340 339 338 342 359 10 16 13 39 35 345 322 308 295 56 78 88 88 85 102 119 137 149 151 157 155 156 155 161 162 161 156 156 158 139 139 139 132 137 80 57 51 41 41 68 63
290 285 286 288 276 272 251 237 252 204 202 208 226 243 249 249 256 259 246 221 195 197 234 262 277 289 306 318 310 315 332 330 330 339 345 351 354 346 338 339 338 339 340 344 347 1 12 24 22 28 26 345 319 314 339 33 69 73 72 75 75 95 118 131 121 138 150 147 147 149 154 155 154 152 134 140 146 146 149 132 106 89 79 45 36 32 58
302 299 288 279 283 285 274 257 260 265 259 250 233 243 256 253 247 249 245 219 195 190 215 246 260 271 287 305 313 315 332 339 330 336 344 348 345 343 336 331 331 341 341 348 356 353 360 10 25 24 16 345 346 346 346 20 64 72 69 72 76 76 67 80 88 88 96 97 124 142 146 138 124 116 127 134 126 116 109 108 116 120 97 72 72 63 69
327 313 293 260 262 266 268 268 265 261 252 243 235 239 258 253 242 245 245 223 203 199 214 226 238 249 255 280 302 313 325 325 333 339 339 332 345 348 337 332 324 345 355 355 1 358 357 3 2 15 354 348 351 1 342 29 57 62 66 68 75 77 88 91 91 89 79 73 77 84 95 102 113 115 111 100 109 119 110 108 111 106 112 125 116 92 77
337 333 323 304 287 279 278 278 266 253 251 242 222 226 233 241 253 250 243 234 214 213 232 230 223 235 239 235 245 285 307 322 329 332 328 340 349 354 352 341 327 358 9 8 356 346 353 353 354 359 340 339 346 345 4 63 65 61 68 64 72 82 96 98 98 97 99 97 92 92 92 99 100 102 98 105 106 107 114 115 116 119 116 116 106 107 107
334 346 343 338 332 317 300 286 283 268 240 219 217 227 215 222 243 248 240 234 227 231 235 237 233 225 231 239 210 256 280 286 300 311 323 342 351 0 9 10 12 6 357 345 336 344 351 357 351 359 339 333 323 345 21 70 76 73 67 67 68 69 77 91 95 105 110 112 109 101 86 83 90 96 100 107 108 103 99 103 102 91 92 94 91 92 96
346 351 357 356 350 342 323 313 306 295 260 168 193 227 217 206 233 244 250 237 227 227 229 229 234 241 254 295 260 234 273 318 317 312 323 348 11 10 16 15 9 360 341 342 351 353 358 4 9 353 345 341 342 10 34 53 65 71 71 74 69 60 61 72 85 83 100 99 103 107 113 108 92 89 90 84 79 87 87 85 77 71 63 73 66 57 74
359 355 358 357 354 358 358 348 329 312 309 216 209 246 254 192 243 271 286 305 310 283 249 236 233 245 289 29 343 336 33 274 261 321 332 343 15 7 0 9 4 357 355 353 354 359 9 16 2 347 357 358 11 21 33 49 55 68 63 66 76 73 68 58 69 88 86 78 84 88 91 97 106 103 96 87 78 71 62 63 63 69 62 56 60 52 57
4 5 357 353 358 5 5 3 358 336 330 347 333 201 234 203 203 229 258 271 278 259 230 245 318 38 57 67 44 26 313 275 325 15 346 340 13 8 0 354 347 10 13 9 9 12 8 6 7 3 3 17 31 35 35 45 57 60 61 60 59 62 63 57 63 81 88 85 82 79 83 86 82 93 99 102 102 95 87 84 83 85 93 82 72 71 62
6 12 8 5 5 8 15 12 7 18 30 31 21 2 287 244 221 220 226 242 285 324 34 29 3 50 77 100 93 96 94 79 11 1 353 5 6 16 354 347 340 1 27 26 19 7 4 7 12 9 16 37 42 47 46 54 61 65 59 68 67 60 53 58 68 61 82 87 84 84 77 74 70 68 72 80 85 94 91 87 81 69 63 74 75 74 64
2 14 17 17 12 12 15 16 18 21 25 24 24 26 31 37 45 42 43 42 34 40 42 23 30 65 70 74 78 83 88 83 50 347 356 18 7 325 255 85 52 37 39 36 20 6 6 20 37 49 50 46 46 49 53 60 62 65 72 76 71 65 62 62 58 61 58 76 82 81 90 91 84 72 68 71 66 79 89 88 85 78 68 58 63 68 70
0 13 17 23 25 26 24 21 20 20 23 30 32 27 25 26 32 40 45 33 27 23 17 36 80 85 82 75 74 67 63 59 66 26 353 337 311 225 65 67 60 52 47 46 8 351 8 45 55 58 52 49 52 54 57 63 63 59 69 69 70 75 77 79 69 70 74 68 77 91 93 84 81 86 78 67 70 72 83 87 85 83 80 75 68 67 66
359 14 24 27 28 31 30 26 22 23 23 24 24 28 32 25 26 38 42 37 30 23 16 27 74 92 92 85 76 74 69 58 60 53 38 6 213 88 66 56 51 40 56 43 351 350 30 52 58 60 53 53 52 56 58 63 69 67 62 64 71 77 77 80 73 69 58 63 71 79 82 82 80 78 82 77 74 76 76 74 75 76 69 69 70 63 61
6 10 20 22 26 28 28 26 25 23 21 21 22 21 17 26 30 34 44 39 29 24 24 18 14 67 79 75 69 63 63 66 70 73 83 97 115 86 72 58 44 45 62 58 45 65 60 61 60 56 59 55 54 57 62 63 66 64 63 61 60 62 69 74 75 74 71 65 60 62 67 71 75 73 70 73 77 78 76 74 69 63 61 60 62 59 58
9 12 14 19 28 26 28 27 26 24 19 18 18 18 11 14 16 27 40 39 31 35 37 31 28 43 51 52 54 55 45 47 52 61 69 80 94 93 90 60 40 31 59 64 59 62 68 71 67 56 65 65 66 63 66 68 68 67 65 62 63 65 62 65 69 70 68 67 69 69 70 69 67 70 70 64 61 64 67 73 71 65 60 59 60 61 62
10 9 11 19 24 28 29 27 27 26 22 17 15 11 10 13 14 27 32 28 22 24 38 43 37 45 46 41 37 36 37 45 45 40 15 32 78 75 78 67 31 29 50 62 62 70 69 66 63 63 56 64 73 87 83 71 68 66 68 68 65 68 68 67 70 70 69 67 66 68 69 75 76 73 68 68 67 62 60 66 69 68 64 60 60 61 64
7 6 12 18 23 25 26 24 24 25 24 19 13 11 11 10 14 22 24 23 25 24 29 37 50 52 48 42 36 33 33 31 40 46 45 49 53 40 77 67 30 52 59 61 61 63 60 60 62 66 65 67 70 78 81 86 87 86 82 77 75 71 69 70 74 78 78 77 76 75 72 67 68 72 71 70 66 65 67 67 66 65 65 66 65 63 64
10 10 14 21 21 23 23 24 23 21 22 17 12 9 7 9 11 12 17 21 24 24 29 32 35 36 38 36 35 30 26 21 27 30 46 50 51 44 56 68 45 57 61 58 57 60 61 62 67 70 75 76 78 79 75 70 73 78 80 77 77 81 82 78 78 80 83 86 84 83 81 78 73 72 71 70 70 68 66 66 65 66 63 65 65 64 62
22 17 14 20 20 21 21 24 26 23 19 11 9 11 6 9 10 12 14 24 29 29 27 26 30 34 34 33 31 25 16 9 10 5 23 48 53 49 40 46 43 59 59 53 52 57 59 63 66 75 76 77 78 77 77 78 76 78 79 79 79 79 78 74 69 70 72 77 83 85 85 84 81 77 75 73 72 69 67 67 65 64 65 65 65 65 63
31 24 18 23 13 6 10 18 23 18 7 359 7 17 15 10 11 8 7 13 24 30 36 38 35 31 28 32 34 25 14 12 11 12 20 30 44 48 36 53 54 54 59 60 55 57 57 63 71 72 73 73 73 73 72 76 77 75 76 79 77 75 74 74 72 68 68 72 73 76 78 79 80 80 81 78 74 70 68 69 70 69 69 68 65 63 61
29 23 8 29 12 357 350 349 352 8 19 20 22 22 20 14 15 13 13 11 14 18 20 24 35 39 36 30 20 20 19 17 12 15 21 20 44 56 58 61 59 61 60 58 56 57 62 66 65 66 69 71 70 66 69 70 73 76 76 77 78 79 81 82 80 79 76 73 72 71 70 73 76 77 78 79 80 79 73 71 69 67 66 67 65 65 64
11 32 21 355 317 327 349 351 345 8 27 36 32 28 21 19 18 20 20 27 28 21 20 20 27 37 36 40 38 24 14 12 15 13 14 11 19 34 50 60 63 63 60 60 62 62 64 63 62 64 66 68 69 71 71 71 70 72 74 76 78 79 80 81 83 82 82 82 81 79 78 77 76 77 78 78 77 75 74 71 67 68 70 72 71 69 67
13 25 15 8 20 12 3 3 9 5 14 40 53 41 32 26 25 23 26 32 34 28 25 23 28 31 35 36 31 30 24 16 28 18 5 14 13 17 24 39 60 64 62 63 64 66 66 66 65 64 64 63 64 67 70 72 76 78 79 77 74 76 81 85 85 86 85 85 85 86 86 85 84 83 82 81 80 79 77 76 74 72 68 67 66 66 68
8 8 3 14 21 18 13 19 20 22 14 15 68 65 52 46 33 24 22 27 35 33 27 22 19 20 24 32 35 26 27 31 39 31 12 18 19 19 21 35 44 49 51 53 58 65 68 68 68 68 67 64 62 64 65 69 74 77 76 77 80 81 81 83 83 85 88 88 89 91 91 87 85 85 85 83 84 85 83 81 78 75 74 74 73 70 66
5 14 14 8 7 10 5 12 24 359 342 65 86 74 66 55 47 32 22 22 31 47 42 32 23 13 8 18 20 20 19 33 38 34 28 28 32 31 31 34 41 51 53 54 55 52 60 65 68 68 68 66 68 69 71 73 72 70 74 76 80 80 82 88 93 93 94 96 97 96 94 92 91 90 89 87 85 79 78 77 76 75 76 77 75 73 72
2 3 348 345 353 3 6 14 4 43 33 22 56 89 81 78 76 59 47 46 36 41 35 38 29 12 4 24 24 18 22 32 52 59 50 39 39 50 52 46 44 44 43 45 47 54 55 51 50 60 65 67 68 66 64 69 72 75 74 70 72 78 78 81 87 92 92 94 95 91 91 92 91 90 87 84 82 80 76 73 73 68 65 67 68 67 67
358 351 339 341 353 9 15 29 41 56 51 43 34 45 59 65 70 63 50 55 57 55 43 35 29 7 19 27 24 14 15 45 47 56 65 63 56 43 49 55 52 48 46 45 46 48 50 55 62 64 66 64 62 68 71 69 62 65 66 68 68 68 67 67 66 66 67 72 76 80 83 85 86 84 79 78 79 79 77 75 72 71 69 66 64 65 62